Volver al catálogo

STARLINK-2518

ActivoComunicacionesVLEO
NORAD 48333·PAYLOAD·🇺🇸 United States

Lanzado Apr 29, 2021 desde Cape Canaveral Space Force Station

Loading…

Próximos Pases (próximas 24 horas)

TLE

ActualizadoSource: CelesTrak SupGP

Época: Sep 14, 2026, 20:35 UTC

1 48333C 21036BK  26257.85812500 -.00012560  00000+0 -40382-3 0  2576
2 48333  53.1576 300.6886 0000990  83.0623 210.2448 15.31713585    12

Sigue STARLINK-2518 en tiempo real con AllMySat

Download on the App Store